FW1654 Weather Reports


Display with metric or nautical units.
time (UTC)temp
F
wind
direction
speed
MPH
gust
MPH
rain 1hr
in
rain 24hr
in
rain mn
in
humidity
%
barometer
mb
20260502130415 49 76 2.0 6.0 0.00 0.00 0.00 59 1018.1
20260502130409 49 190 2.0 6.0 0.00 0.00 0.00 58 1018.1
20260502123404 48 311 0.0 1.0 0.00 0.00 0.00 65 1018.0
20260502122905 48 27 0.0 0.0 0.00 0.00 0.00 65 1018.0
20260502122355 48 27 0.0 0.0 0.00 0.00 0.00 65 1017.7
20260502121858 48 27 0.0 0.0 0.00 0.00 0.00 66 1017.7
20260502121354 48 27 0.0 0.0 0.00 0.00 0.00 67 1017.7
20260502120850 48 27 0.0 0.0 0.00 0.00 0.00 67 1017.7
20260502120336 48 27 0.0 0.0 0.00 0.00 0.00 67 1017.7
20260502115839 47 27 0.0 0.0 0.00 0.00 0.00 69 1017.7
20260502115335 47 27 0.0 0.0 0.00 0.00 0.00 68 1017.5
20260502114831 47 27 0.0 0.0 0.00 0.00 0.00 67 1017.5
20260502114331 47 27 0.0 0.0 0.00 0.00 0.00 67 1017.5
20260502113827 47 27 0.0 0.0 0.00 0.00 0.00 69 1017.6
20260502113548 47 27 0.0 2.0 0.00 0.00 0.00 67 1017.6
20260502112820 47 27 0.0 2.0 0.00 0.00 0.00 66 1017.6
20260502112308 47 27 0.0 2.0 0.00 0.00 0.00 66 1017.5
20260502111809 47 27 0.0 2.0 0.00 0.00 0.00 66 1017.5
20260502111524 47 27 0.0 0.0 0.00 0.00 0.00 66 1017.5
20260502110803 47 27 0.0 0.0 0.00 0.00 0.00 65 1017.5
20260502110252 47 27 0.0 1.0 0.00 0.00 0.00 65 1017.5
20260502105745 48 27 0.0 2.0 0.00 0.00 0.00 65 1017.5
20260502105243 48 27 0.0 2.0 0.00 0.00 0.00 65 1017.3
20260502104730 48 27 0.0 4.0 0.00 0.00 0.00 65 1017.3
20260502104159 48 27 0.0 4.0 0.00 0.00 0.00 64 1017.3
20260502103655 48 68 0.0 0.0 0.00 0.00 0.00 64 1017.2
20260502103155 48 67 0.0 0.0 0.00 0.00 0.00 65 1017.2
20260502102911 48 68 0.0 0.0 0.00 0.00 0.00 64 1017.2
20260502102153 48 68 0.0 5.0 0.00 0.00 0.00 66 1017.2
20260502101644 48 67 0.0 5.0 0.00 0.00 0.00 66 1017.2
20260502101621 48 256 0.0 3.0 0.00 0.00 0.00 67 1017.2
20260502100638 48 331 0.0 3.0 0.00 0.00 0.00 68 1017.2
20260502100136 49 331 0.0 4.0 0.00 0.00 0.00 68 1017.2
20260502091253 49 37 0.0 4.0 0.00 0.00 0.00 68 1017.6
20260502090535 49 22 0.0 4.0 0.00 0.00 0.00 68 1017.6
20260502071345 51 31 1.0 3.0 0.00 0.00 0.00 65 1017.3
20260502070809 51 31 1.0 3.0 0.00 0.00 0.00 64 1017.4
20260502070309 51 31 1.0 2.0 0.00 0.00 0.00 65 1017.4
20260502065803 52 31 2.0 2.0 0.00 0.00 0.00 65 1017.4
20260502065306 52 31 2.0 5.0 0.00 0.00 0.00 64 1017.3
20260502064744 52 30 1.0 5.0 0.00 0.00 0.00 64 1017.3
20260502064245 52 72 1.0 3.0 0.00 0.00 0.00 65 1017.3
20260502063744 52 70 1.0 2.0 0.00 0.00 0.00 65 1017.1
20260502063237 52 70 1.0 3.0 0.00 0.00 0.00 65 1017.1
20260502062735 53 70 2.0 3.0 0.00 0.00 0.00 65 1017.1
20260502062233 53 70 2.0 3.0 0.00 0.00 0.00 65 1017.2
20260502062000 53 71 2.0 8.0 0.00 0.00 0.00 65 1017.2
20260502061236 53 70 2.0 8.0 0.00 0.00 0.00 64 1017.2
20260502060947 53 186 2.0 3.0 0.00 0.00 0.00 65 1017.4
20260502060225 53 145 2.0 4.0 0.00 0.00 0.00 64 1017.4
20260502055722 53 146 2.0 4.0 0.00 0.00 0.00 64 1017.4
20260502055220 53 31 2.0 4.0 0.00 0.00 0.00 64 1017.3
20260502054720 53 68 2.0 4.0 0.00 0.00 0.00 64 1017.3
20260502054218 53 74 2.0 5.0 0.00 0.00 0.00 64 1017.3
20260502053716 54 74 2.0 5.0 0.00 0.00 0.00 64 1017.5
20260502053212 54 354 2.0 5.0 0.00 0.00 0.00 64 1017.5
20260502052711 54 333 2.0 7.0 0.00 0.00 0.00 64 1017.5
20260502052206 54 333 2.0 7.0 0.00 0.00 0.00 64 1017.3
20260502051705 54 200 2.0 6.0 0.00 0.00 0.00 63 1017.3
20260502051205 54 334 2.0 6.0 0.00 0.00 0.00 63 1017.3
20260502050705 54 344 2.0 4.0 0.00 0.00 0.00 63 1017.1
20260502050208 54 11 2.0 5.0 0.00 0.00 0.00 62 1017.1
20260502045702 54 11 3.0 9.0 0.00 0.00 0.00 62 1017.1
20260502045640 55 339 3.0 9.0 0.00 0.00 0.00 62 1016.9
20260502044921 55 302 3.0 7.0 0.00 0.00 0.00 62 1016.9
20260502044152 55 74 3.0 7.0 0.00 0.00 0.00 62 1016.8
20260502043653 55 258 1.0 6.0 0.00 0.00 0.00 62 1016.8
20260502043150 55 345 1.0 4.0 0.00 0.00 0.00 63 1016.8
20260502042650 55 30 0.0 3.0 0.00 0.00 0.00 66 1016.7
20260502042145 55 49 0.0 3.0 0.00 0.00 0.00 65 1016.7
20260502041639 55 178 0.0 4.0 0.00 0.00 0.00 65 1016.7
20260502041342 55 178 0.0 4.0 0.00 0.00 0.00 64 1016.7
20260502040609 55 275 0.0 2.0 0.00 0.00 0.00 64 1016.7
20260502040042 55 275 0.0 2.0 0.00 0.00 0.00 64 1016.7
20260502035458 55 275 0.0 2.0 0.00 0.00 0.00 64 1016.8
20260502035208 56 275 0.0 2.0 0.00 0.00 0.00 63 1016.8
20260502034441 56 275 1.0 3.0 0.00 0.00 0.00 64 1016.8
20260502033930 56 275 1.0 3.0 0.00 0.00 0.00 63 1016.6
20260502033427 56 275 2.0 5.0 0.00 0.00 0.00 63 1016.6
20260502032927 56 195 2.0 5.0 0.00 0.00 0.00 63 1016.6
20260502032407 56 286 2.0 5.0 0.00 0.00 0.00 63 1016.6
20260502032129 56 2 2.0 5.0 0.00 0.00 0.00 63 1016.6
20260502031407 56 275 1.0 4.0 0.00 0.00 0.00 64 1016.6
20260502030858 56 297 1.0 3.0 0.00 0.00 0.00 64 1016.7
20260502030355 56 299 2.0 4.0 0.00 0.00 0.00 64 1016.7
20260502030114 57 299 2.0 4.0 0.00 0.00 0.00 64 1016.7
20260502025354 57 300 2.0 4.0 0.00 0.00 0.00 65 1016.7
20260502024845 57 246 1.0 4.0 0.00 0.00 0.00 65 1016.7
20260502024340 57 338 1.0 4.0 0.00 0.00 0.00 65 1016.7
20260502023829 57 13 2.0 5.0 0.00 0.00 0.00 65 1016.7
20260502023551 58 328 2.0 5.0 0.00 0.00 0.00 64 1016.7
20260502022807 58 307 2.0 4.0 0.00 0.00 0.00 65 1016.7
20260502022306 58 307 2.0 4.0 0.00 0.00 0.00 64 1016.4
20260502022016 58 280 2.0 4.0 0.00 0.00 0.00 63 1016.4
20260502021249 58 76 2.0 5.0 0.00 0.00 0.00 63 1016.4
20260502020744 58 197 2.0 6.0 0.00 0.00 0.00 63 1016.1
20260502020243 58 20 2.0 6.0 0.00 0.00 0.00 62 1016.1
20260502015742 59 23 2.0 5.0 0.00 0.00 0.00 61 1016.1
20260502015239 59 250 2.0 6.0 0.00 0.00 0.00 61 1015.7
20260502014953 59 259 3.0 6.0 0.00 0.00 0.00 61 1015.7
20260502014232 59 277 3.0 8.0 0.00 0.00 0.00 60 1015.7
20260502013951 60 336 2.0 10.0 0.00 0.00 0.00 59 1015.4
20260502013455 60 192 2.0 10.0 0.00 0.00 0.00 58 1015.4
20260502012730 60 11 3.0 7.0 0.00 0.00 0.00 58 1015.4
20260502012230 60 22 3.0 9.0 0.00 0.00 0.00 57 1014.9
20260502011725 60 302 1.0 9.0 0.00 0.00 0.00 56 1014.9
20260502011225 60 350 1.0 5.0 0.00 0.00 0.00 54 1014.9
20260502010723 60 241 1.0 2.0 0.00 0.00 0.00 53 1014.6
20260502010222 60 241 1.0 3.0 0.00 0.00 0.00 52 1014.6
20260502005714 61 241 2.0 3.0 0.00 0.00 0.00 52 1014.6
20260502005214 61 241 2.0 4.0 0.00 0.00 0.00 51 1014.5
20260502005158 61 241 2.0 4.0 0.00 0.00 0.00 51 1014.5
20260502004210 61 337 2.0 4.0 0.00 0.00 0.00 50 1014.5
20260502003705 61 270 2.0 4.0 0.00 0.00 0.00 50 1014.3
20260502003203 61 262 2.0 4.0 0.00 0.00 0.00 51 1014.3
20260502002657 61 246 3.0 4.0 0.00 0.00 0.00 51 1014.3
20260502002155 62 267 3.0 4.0 0.00 0.00 0.00 51 1014.3
20260502001652 62 267 2.0 5.0 0.00 0.00 0.00 51 1014.3
20260502001149 62 267 2.0 5.0 0.00 0.00 0.00 50 1013.9
20260502000649 62 262 1.0 4.0 0.00 0.00 0.00 51 1013.9
20260502000145 63 263 1.0 4.0 0.00 0.00 0.00 51 1013.9
20260501235644 63 268 2.0 2.0 0.00 0.00 0.00 51 1013.8
20260501235341 63 268 2.0 4.0 0.00 0.00 0.00 51 1013.8
20260501235225 63 268 2.0 3.0 0.00 0.00 0.00 51 1013.8
20260501234353 64 268 2.0 4.0 0.00 0.00 0.00 50 1013.7
20260501233635 64 268 2.0 3.0 0.00 0.00 0.00 50 1013.7
20260501233131 64 268 2.0 4.0 0.00 0.00 0.00 50 1013.7
20260501232628 64 268 2.0 5.0 0.00 0.00 0.00 49 1013.5
20260501232343 65 257 2.0 5.0 0.00 0.00 0.00 49 1013.5
20260501231620 65 264 2.0 5.0 0.00 0.00 0.00 48 1013.5
20260501231120 65 264 2.0 6.0 0.00 0.00 0.00 46 1013.5
20260501230619 65 201 4.0 6.0 0.00 0.00 0.00 46 1013.5
20260501230120 65 200 4.0 7.0 0.00 0.00 0.00 46 1013.5
20260501225619 66 183 4.0 7.0 0.00 0.00 0.00 44 1013.8
20260501225117 66 209 4.0 8.0 0.00 0.00 0.00 45 1013.8
20260501224616 66 259 3.0 8.0 0.00 0.00 0.00 44 1013.8
20260501224117 66 203 3.0 6.0 0.00 0.00 0.00 43 1013.9
20260501223617 66 275 4.0 7.0 0.00 0.00 0.00 44 1013.9
20260501223112 66 198 4.0 8.0 0.00 0.00 0.00 44 1013.9
20260501223101 66 200 3.0 8.0 0.00 0.00 0.00 42 1013.9
20260501222110 67 186 3.0 8.0 0.00 0.00 0.00 42 1013.9
20260501221612 67 211 3.0 8.0 0.00 0.00 0.00 42 1013.9
20260501221107 67 211 3.0 7.0 0.00 0.00 0.00 41 1013.8
20260501220609 67 225 4.0 6.0 0.00 0.00 0.00 42 1013.8
20260501220107 67 198 4.0 7.0 0.00 0.00 0.00 41 1013.8
20260501215612 67 209 4.0 8.0 0.00 0.00 0.00 40 1013.9
20260501215107 67 190 4.0 8.0 0.00 0.00 0.00 38 1013.9
20260501214609 68 183 4.0 10.0 0.00 0.00 0.00 37 1013.9
20260501214107 68 187 4.0 11.0 0.00 0.00 0.00 37 1013.9
20260501213608 68 185 4.0 11.0 0.00 0.00 0.00 38 1013.9
20260501213107 68 175 4.0 11.0 0.00 0.00 0.00 37 1013.9
20260501212609 68 287 5.0 11.0 0.00 0.00 0.00 36 1013.9
20260501212104 68 189 5.0 11.0 0.00 0.00 0.00 37 1013.9
20260501211606 68 207 4.0 11.0 0.00 0.00 0.00 35 1013.9
20260501211105 68 197 4.0 11.0 0.00 0.00 0.00 35 1013.9
20260501210831 68 201 5.0 14.0 0.00 0.00 0.00 35 1013.9
20260501210104 68 202 5.0 14.0 0.00 0.00 0.00 34 1013.9
20260501205605 69 288 4.0 10.0 0.00 0.00 0.00 35 1014.0
20260501205105 68 218 4.0 10.0 0.00 0.00 0.00 34 1014.0
20260501204607 69 205 5.0 12.0 0.00 0.00 0.00 34 1014.0
20260501204104 69 188 5.0 12.0 0.00 0.00 0.00 34 1014.1
20260501203606 69 214 5.0 11.0 0.00 0.00 0.00 35 1014.1
20260501203105 69 268 5.0 13.0 0.00 0.00 0.00 38 1014.1
20260501202606 69 242 5.0 13.0 0.00 0.00 0.00 36 1014.2
20260501202104 69 268 5.0 10.0 0.00 0.00 0.00 38 1014.2
20260501201606 69 237 5.0 16.0 0.00 0.00 0.00 38 1014.2
20260501201104 69 256 5.0 16.0 0.00 0.00 0.00 38 1014.4
20260501200606 69 219 5.0 12.0 0.00 0.00 0.00 37 1014.4
20260501200105 68 14 5.0 13.0 0.00 0.00 0.00 40 1014.4
20260501195606 68 191 5.0 13.0 0.00 0.00 0.00 36 1014.5
20260501195328 68 188 5.0 11.0 0.00 0.00 0.00 40 1014.5
20260501194606 68 215 6.0 11.0 0.00 0.00 0.00 38 1014.5
20260501194104 68 193 6.0 15.0 0.00 0.00 0.00 37 1014.6
20260501193606 68 256 5.0 15.0 0.00 0.00 0.00 37 1014.6
20260501193104 68 223 5.0 13.0 0.00 0.00 0.00 37 1014.6
20260501192606 68 210 5.0 11.0 0.00 0.00 0.00 36 1014.9
20260501192105 67 208 5.0 10.0 0.00 0.00 0.00 37 1014.9
20260501191827 67 189 5.0 16.0 0.00 0.00 0.00 37 1014.9
20260501191104 67 187 5.0 16.0 0.00 0.00 0.00 36 1015.0
20260501190606 67 183 5.0 10.0 0.00 0.00 0.00 36 1015.0
20260501190329 67 287 5.0 10.0 0.00 0.00 0.00 37 1015.0
20260501185606 67 117 5.0 11.0 0.00 0.00 0.00 36 1015.1
20260501185104 67 205 5.0 11.0 0.00 0.00 0.00 39 1015.1
20260501184606 67 193 5.0 13.0 0.00 0.00 0.00 38 1015.1
20260501184104 67 167 5.0 13.0 0.00 0.00 0.00 36 1015.3
20260501183606 67 196 5.0 13.0 0.00 0.00 0.00 39 1015.3
20260501183105 67 262 5.0 13.0 0.00 0.00 0.00 38 1015.3
20260501182606 67 190 4.0 10.0 0.00 0.00 0.00 41 1015.2
20260501182104 67 277 4.0 12.0 0.00 0.00 0.00 39 1015.2
20260501181606 67 257 4.0 12.0 0.00 0.00 0.00 43 1015.2
20260501181104 67 212 4.0 9.0 0.00 0.00 0.00 45 1015.4
20260501180606 67 268 4.0 9.0 0.00 0.00 0.00 44 1015.4
20260501180105 67 230 4.0 9.0 0.00 0.00 0.00 45 1015.4
20260501175606 66 269 4.0 9.0 0.00 0.00 0.00 46 1015.5
20260501175553 66 190 4.0 9.0 0.00 0.00 0.00 41 1015.5
20260501174606 65 185 4.0 9.0 0.00 0.00 0.00 41 1015.5
20260501174104 65 231 4.0 9.0 0.00 0.00 0.00 42 1015.6
20260501173606 65 193 5.0 10.0 0.00 0.00 0.00 41 1015.6
20260501173328 65 195 5.0 10.0 0.00 0.00 0.00 41 1015.6
20260501173054 65 195 4.0 10.0 0.00 0.00 0.00 41 1015.7
20260501172107 65 196 4.0 9.0 0.00 0.00 0.00 45 1015.7
20260501171829 65 285 3.0 10.0 0.00 0.00 0.00 45 1015.7
20260501171104 64 263 3.0 10.0 0.00 0.00 0.00 40 1016.2
20260501170605 64 144 5.0 9.0 0.00 0.00 0.00 45 1016.2
20260501170326 63 220 5.0 10.0 0.00 0.00 0.00 49 1016.2
20260501165606 63 288 4.0 10.0 0.00 0.00 0.00 44 1016.3
20260501165104 63 270 4.0 9.0 0.00 0.00 0.00 51 1016.3
20260501164606 63 173 4.0 12.0 0.00 0.00 0.00 52 1016.3
20260501164104 63 277 4.0 12.0 0.00 0.00 0.00 51 1016.6
20260501163606 63 154 5.0 11.0 0.00 0.00 0.00 48 1016.6
20260501163104 62 228 5.0 11.0 0.00 0.00 0.00 50 1016.6
20260501162606 62 243 4.0 11.0 0.00 0.00 0.00 48 1016.6
20260501162105 62 209 4.0 11.0 0.00 0.00 0.00 49 1016.6
20260501161606 62 181 5.0 10.0 0.00 0.00 0.00 51 1016.6
20260501161105 61 295 5.0 11.0 0.00 0.00 0.00 53 1016.8
20260501160826 61 186 3.0 11.0 0.00 0.00 0.00 54 1016.8
20260501160105 61 195 3.0 10.0 0.00 0.00 0.00 52 1016.8
20260501155606 61 198 2.0 10.0 0.00 0.00 0.00 50 1016.9
20260501155104 61 275 2.0 8.0 0.00 0.00 0.00 52 1016.9
20260501154606 61 205 3.0 6.0 0.00 0.00 0.00 52 1016.9
20260501154104 60 266 3.0 10.0 0.00 0.00 0.00 52 1017.1
20260501153604 60 193 2.0 10.0 0.00 0.00 0.00 52 1017.1
20260501153104 60 273 2.0 8.0 0.00 0.00 0.00 57 1017.1
20260501152607 60 241 2.0 8.0 0.00 0.00 0.00 57 1017.1
20260501152107 59 198 2.0 8.0 0.00 0.00 0.00 54 1017.1
20260501151827 59 197 2.0 8.0 0.00 0.00 0.00 58 1017.1
20260501151107 58 224 2.0 8.0 0.00 0.00 0.00 58 1016.9
20260501150606 58 210 2.0 8.0 0.00 0.00 0.00 56 1016.9
20260501150105 57 264 2.0 6.0 0.00 0.00 0.00 55 1016.9
20260501145604 57 202 0.0 5.0 0.00 0.00 0.00 56 1016.9
20260501145104 56 204 0.0 5.0 0.00 0.00 0.00 61 1016.9
20260501144604 56 204 0.0 3.0 0.00 0.00 0.00 61 1016.9
20260501144105 56 182 0.0 3.0 0.00 0.00 0.00 60 1017.0
20260501143604 56 338 0.0 3.0 0.00 0.00 0.00 61 1017.0
20260501143107 55 206 0.0 2.0 0.00 0.00 0.00 65 1017.0
20260501142828 55 244 1.0 4.0 0.00 0.00 0.00 64 1016.9
20260501142108 55 244 1.0 4.0 0.00 0.00 0.00 64 1016.9
20260501141545 55 99 1.0 4.0 0.00 0.00 0.00 61 1016.9
20260501141044 54 204 1.0 5.0 0.00 0.00 0.00 65 1017.0
20260501140544 54 196 1.0 5.0 0.00 0.00 0.00 66 1017.0
20260501140044 53 11 1.0 4.0 0.00 0.00 0.00 66 1017.0
20260501135525 53 21 0.0 4.0 0.00 0.00 0.00 68 1017.0